Location: Taipo
(41.0000°S, 175.9500°E)
Time: 08:46:19
(UTC+00:00)

Envisat - Visible Passes

Search period start: 20 January 2026 00:00
Search period end: 30 January 2026 00:00
Orbit: 761 x 763 km, 98.4° (Epoch: 19 January)

Date Brightness Start Highest point End Pass type
(mag) Time Alt. Az. Time Alt. Az. Time Alt. Az.
20 Jan 5.4 12:38:11 11° E 12:40:39 15° ESE 12:43:26 10° SSE visible
20 Jan 2.9 14:18:19 65° NNW 14:18:56 73° WNW 14:24:05 10° SSW visible
21 Jan 3.7 13:40:11 43° ENE 13:41:13 50° ESE 13:46:12 10° S visible
21 Jan 4.5 15:20:18 19° W 15:20:26 19° W 15:24:02 10° SW visible
22 Jan 4.9 13:02:01 20° E 13:03:45 23° ESE 13:07:45 10° SSE visible
22 Jan 3.4 14:42:09 43° WNW 14:42:22 43° W 14:47:16 10° SSW visible
23 Jan 5.6 12:25:10 10° ESE 12:26:28 11° ESE 12:27:47 10° SE visible
23 Jan 2.9 14:04:01 72° NE 14:04:32 83° ESE 14:09:42 10° SSW visible
23 Jan 5.0 15:44:09 11° W 15:44:09 11° W 15:45:26 10° WSW visible
24 Jan 4.1 13:25:52 33° E 13:26:55 37° ESE 13:31:37 10° S visible
24 Jan 4.1 15:06:00 26° W 15:06:00 26° W 15:10:10 10° SW visible
25 Jan 5.2 12:47:43 15° E 12:49:30 18° ESE 12:52:52 10° SSE visible
25 Jan 3.0 14:27:51 59° WNW 14:27:55 59° W 14:33:01 10° SSW visible
26 Jan 3.3 13:49:43 58° E 13:50:11 61° ESE 13:55:15 10° S visible
26 Jan 4.7 15:29:50 15° W 15:29:50 15° W 15:32:31 10° SW visible
27 Jan 4.6 13:11:34 26° E 13:12:38 28° ESE 13:16:57 10° S visible
27 Jan 3.8 14:51:42 35° W 14:51:42 35° W 14:56:06 10° SSW visible
28 Jan 5.5 12:33:25 11° E 12:35:19 13° ESE 12:37:42 10° SSE visible
28 Jan 2.9 14:13:34 81° W 14:13:34 81° W 14:18:41 10° SSW visible
29 Jan 3.8 13:35:25 44° E 13:35:51 45° ESE 13:40:44 10° S visible
29 Jan 4.4 15:15:33 21° W 15:15:33 21° W 15:18:50 10° SW visible
